ARIANE 5 R/B, 38993

Orbit data source: Space-Track

ARIANE 5 R/B, 38993 is space debris in HEO originally from a launch on Sat, 10 Nov 2012 UTC launched from the French Guiana (FRGUI). Debris objects in space refer to the collection of defunct objects orbiting the Earth. Examples of debris include non-operational satellites, rocket bodies, and fragments generated from explosions, collisions, or faulty payload assembly.

Loading next visibility...
Identifier
38993, 2012-062C
Orbit
HEO
Country
Flag of FRFR
Related business
Manufacturer
EADS/LV
Mission
Spacecraft
Bus & Motor
ESC-A, Unknown motor
Mass
~5,000 kg wet, ~5,000 kg dry
Launch date (UTC)
2012-11-10 (13 years ago)
Launch vehicle
Unknown
Launch site
French Guiana (FRGUI)
Object type
Payload
Rocket body
Debris
Shape & HBR
Cyl + 1 Nozzle, 3.5 m
Radar Cross Section
41.627 m², Large (>1 m²)

Expand to show TLE details & history
Last TLE update: 14 hours ago

TLE from 14 hours ago
0 ARIANE 5 R/B
1 38993U 12062C   26107.00635910  .00002350  00000-0  47208-3 0  9997
2 38993   2.7246  50.5503 6931459  61.7859 350.3041  2.73484577122206
Epoch: 2026-04-17T00:09Z
TLE epoch observation values (Epoch: 2026-04-17T00:09:09.426Z)
Latitude
0.00012°
Longitude
-157.17151°
Altitude
2,117.342 km
Speed
8.682 km/s
True Right ascension
03h 21m 03s
True Declination
0° 00' 00"
Sunlit
Object was in daylight at epoch
Visualization orbit readout
Latitude
Unknown
Longitude
Unknown
Altitude
Unknown
Speed
Unknown
Apparent Right ascension
Unknown
Apparent Declination
Unknown
Sunlit
N/A
Visualization observer readout
Local Sidereal Time
20:45:08
Azimuth
Unknown
Elevation
Unknown
Doppler factor
Unknown
Orbital elements
Apogee altitude
30,202.425 km
Perigee altitude
251.472 km
Semi-major axis
21,605.086 km
Eccentricity
0.69315
Inclination
2.7246°
RAAN
50.5503°
Arg. of periapsis
61.7859°
True anomaly
297.67732°
Mean anomaly
350.3041°
Eccentric anomaly
331.12763°
Mean motion
0.68345 °/min
Orbital period
526.74 mins
BSTAR
0.00047208
Loading maneuver chart data...
Computing Atmospheric mass density...
Loading historical data...
Loading historical data...
Loading historical data...
Loading historical data...
Loading historical data...
Loading historical data...
Loading historical data...
Other satellites on launch #62 in the year 2012 (2012-11-10 UTC)

Documentation

Showing up to 5 results
|